| time (UTC) | temp F | wind direction | speed knots | gust knots | rain 1hr in | rain 24hr in | rain mn in | humidity % | barometer mb |
| 20260504045022 | 62 | 297 | 1.7 | 3.5 | 0.00 | 0.01 | 0.01 | 73 | 1019.3 |
| 20260504044025 | 62 | 314 | 2.6 | 4.3 | 0.00 | 0.01 | 0.01 | 73 | 1019.2 |
| 20260504043051 | 62 | 340 | 1.7 | 3.5 | 0.00 | 0.01 | 0.01 | 72 | 1019.3 |
| 20260504042023 | 62 | 322 | 2.6 | 4.3 | 0.00 | 0.01 | 0.01 | 71 | 1019.3 |
| 20260504041023 | 62 | 325 | 2.6 | 4.3 | 0.00 | 0.01 | 0.01 | 71 | 1019.2 |
| 20260504040048 | 63 | 328 | 1.7 | 3.5 | 0.00 | 0.01 | 0.01 | 71 | 1019.1 |
| 20260504035051 | 63 | 327 | 2.6 | 3.5 | 0.00 | 0.01 | 0.01 | 71 | 1019.1 |
| 20260504034023 | 63 | 333 | 2.6 | 3.5 | 0.00 | 0.01 | 0.01 | 71 | 1019.1 |
| 20260504033023 | 63 | 323 | 2.6 | 4.3 | 0.00 | 0.01 | 0.01 | 72 | 1019.1 |
| 20260504032023 | 63 | 321 | 1.7 | 4.3 | 0.00 | 0.01 | 0.01 | 72 | 1019.1 |
| 20260504031023 | 63 | 325 | 1.7 | 3.5 | 0.00 | 0.01 | 0.01 | 71 | 1019.2 |
| 20260504030024 | 64 | 333 | 2.6 | 3.5 | 0.00 | 0.01 | 0.01 | 71 | 1019.2 |
| 20260504025024 | 64 | 331 | 1.7 | 3.5 | 0.00 | 0.01 | 0.01 | 71 | 1019.2 |
| 20260504024024 | 65 | 331 | 1.7 | 2.6 | 0.00 | 0.01 | 0.01 | 69 | 1019.2 |
| 20260504023024 | 65 | 317 | 2.6 | 4.3 | 0.00 | 0.01 | 0.01 | 68 | 1019.1 |
| 20260504022049 | 65 | 323 | 2.6 | 4.3 | 0.00 | 0.01 | 0.01 | 67 | 1019.0 |
| 20260504021022 | 64 | 298 | 4.3 | 7.0 | 0.00 | 0.01 | 0.01 | 71 | 1018.8 |
| 20260504020025 | 65 | 341 | 1.7 | 2.6 | 0.00 | 0.01 | 0.01 | 70 | 1018.8 |
| 20260504015024 | 67 | 348 | 1.7 | 2.6 | 0.00 | 0.01 | 0.01 | 67 | 1018.5 |
| 20260504014115 | 68 | 341 | 1.7 | 2.6 | 0.00 | 0.01 | 0.01 | 64 | 1018.4 |
| 20260504013022 | 70 | 331 | 1.7 | 3.5 | 0.00 | 0.01 | 0.01 | 59 | 1018.3 |
| 20260504012022 | 71 | 278 | 1.7 | 3.5 | 0.00 | 0.01 | 0.01 | 54 | 1018.2 |
| 20260504011051 | 71 | 248 | 3.5 | 6.1 | 0.00 | 0.01 | 0.01 | 61 | 1018.1 |
| 20260504010133 | 71 | 236 | 5.2 | 7.8 | 0.00 | 0.01 | 0.01 | 63 | 1018.1 |
| 20260504005023 | 71 | 232 | 6.1 | 8.7 | 0.00 | 0.01 | 0.01 | 66 | 1018.0 |
| 20260504004023 | 71 | 233 | 6.1 | 9.6 | 0.00 | 0.01 | 0.01 | 66 | 1018.0 |
| 20260504003023 | 71 | 237 | 6.1 | 8.7 | 0.00 | 0.01 | 0.01 | 65 | 1017.9 |
| 20260504002023 | 71 | 237 | 6.1 | 8.7 | 0.00 | 0.01 | 0.01 | 64 | 1017.9 |
| 20260504001023 | 71 | 237 | 6.1 | 8.7 | 0.00 | 0.01 | 0.01 | 64 | 1017.8 |
| 20260504000024 | 71 | 232 | 6.1 | 8.7 | 0.00 | 0.01 | 0.01 | 63 | 1017.8 |
| 20260503235023 | 71 | 235 | 5.2 | 7.8 | 0.00 | 0.01 | 0.01 | 61 | 1017.8 |
| 20260503234025 | 71 | 232 | 6.1 | 10.4 | 0.00 | 0.01 | 0.01 | 61 | 1017.9 |
| 20260503233023 | 71 | 227 | 6.1 | 8.7 | 0.00 | 0.01 | 0.01 | 61 | 1017.9 |
| 20260503232024 | 71 | 223 | 6.1 | 9.6 | 0.00 | 0.01 | 0.01 | 61 | 1017.9 |
| 20260503231024 | 71 | 220 | 6.1 | 9.6 | 0.00 | 0.01 | 0.01 | 60 | 1017.9 |
| 20260503230024 | 71 | 219 | 7.0 | 9.6 | 0.00 | 0.01 | 0.01 | 58 | 1017.9 |
| 20260503225046 | 71 | 209 | 8.7 | 10.4 | 0.00 | 0.01 | 0.01 | 59 | 1018.0 |
| 20260503224024 | 71 | 218 | 7.0 | 9.6 | 0.00 | 0.01 | 0.01 | 57 | 1017.9 |
| 20260503223024 | 71 | 221 | 7.0 | 10.4 | 0.00 | 0.01 | 0.01 | 55 | 1017.8 |
| 20260503222024 | 71 | 222 | 6.1 | 9.6 | 0.00 | 0.01 | 0.01 | 52 | 1017.8 |
| 20260503221022 | 71 | 218 | 7.0 | 8.7 | 0.00 | 0.01 | 0.01 | 51 | 1017.9 |
| 20260503220022 | 70 | 212 | 7.0 | 9.6 | 0.00 | 0.01 | 0.01 | 51 | 1018.0 |
| 20260503215050 | 70 | 215 | 7.8 | 10.4 | 0.00 | 0.01 | 0.01 | 53 | 1018.0 |
| 20260503214025 | 70 | 222 | 7.0 | 10.4 | 0.00 | 0.01 | 0.01 | 52 | 1018.1 |
| 20260503213022 | 70 | 225 | 7.8 | 11.3 | 0.00 | 0.01 | 0.01 | 52 | 1018.2 |
| 20260503212022 | 70 | 218 | 8.7 | 11.3 | 0.00 | 0.01 | 0.01 | 52 | 1018.3 |
| 20260503211022 | 70 | 229 | 6.1 | 10.4 | 0.00 | 0.01 | 0.01 | 52 | 1018.5 |
| 20260503210051 | 71 | 227 | 6.1 | 10.4 | 0.00 | 0.01 | 0.01 | 51 | 1018.5 |
| 20260503205023 | 71 | 231 | 6.1 | 10.4 | 0.00 | 0.01 | 0.01 | 53 | 1018.7 |
| 20260503204023 | 70 | 215 | 7.8 | 9.6 | 0.00 | 0.01 | 0.01 | 47 | 1018.7 |
| 20260503203023 | 70 | 203 | 7.0 | 8.7 | 0.00 | 0.01 | 0.01 | 48 | 1018.8 |
| 20260503202023 | 70 | 201 | 7.8 | 11.3 | 0.00 | 0.01 | 0.01 | 48 | 1018.9 |
| 20260503201024 | 70 | 199 | 8.7 | 11.3 | 0.00 | 0.01 | 0.01 | 47 | 1018.9 |
| 20260503200024 | 71 | 168 | 7.0 | 8.7 | 0.00 | 0.01 | 0.01 | 46 | 1019.2 |
| 20260503195023 | 73 | 221 | 3.5 | 7.0 | 0.00 | 0.01 | 0.01 | 44 | 1019.4 |
| 20260503194034 | 74 | 302 | 1.7 | 4.3 | 0.00 | 0.01 | 0.01 | 33 | 1019.5 |
| 20260503193024 | 74 | 150 | 1.7 | 4.3 | 0.00 | 0.01 | 0.01 | 35 | 1019.7 |
| 20260503192024 | 74 | 53 | 2.6 | 7.0 | 0.00 | 0.01 | 0.01 | 33 | 1019.8 |
| 20260503191024 | 74 | 242 | 1.7 | 3.5 | 0.00 | 0.01 | 0.01 | 33 | 1019.9 |
| 20260503190049 | 73 | 9 | 4.3 | 9.6 | 0.00 | 0.01 | 0.01 | 34 | 1020.2 |
| 20260503185021 | 73 | 77 | 6.1 | 9.6 | 0.00 | 0.01 | 0.01 | 34 | 1020.2 |
| 20260503184049 | 73 | 25 | 2.6 | 4.3 | 0.00 | 0.01 | 0.01 | 33 | 1020.4 |
| 20260503183050 | 73 | 356 | 4.3 | 11.3 | 0.00 | 0.01 | 0.01 | 33 | 1020.5 |
| 20260503182025 | 73 | 315 | 4.3 | 8.7 | 0.00 | 0.01 | 0.01 | 33 | 1020.6 |
| 20260503181022 | 73 | 324 | 4.3 | 8.7 | 0.00 | 0.01 | 0.01 | 33 | 1020.7 |
| 20260503180022 | 73 | 346 | 6.1 | 11.3 | 0.00 | 0.01 | 0.01 | 32 | 1020.7 |
| 20260503175025 | 72 | 3 | 3.5 | 10.4 | 0.00 | 0.01 | 0.01 | 34 | 1020.8 |
| 20260503174050 | 72 | 348 | 5.2 | 11.3 | 0.00 | 0.01 | 0.01 | 34 | 1020.8 |
| 20260503173022 | 72 | 45 | 3.5 | 7.8 | 0.00 | 0.01 | 0.01 | 35 | 1020.9 |
| 20260503172048 | 72 | 358 | 6.1 | 13.9 | 0.01 | 0.01 | 0.01 | 33 | 1021.0 |
| 20260503171048 | 72 | 342 | 5.2 | 10.4 | 0.01 | 0.01 | 0.01 | 34 | 1021.2 |
| 20260503150114 | 68 | 21 | 3.5 | 7.0 | 0.00 | 0.00 | 0.00 | 44 | 1022.0 |
| 20260503131023 | 60 | 358 | 3.5 | 6.1 | 0.00 | 0.00 | 0.00 | 65 | 1021.4 |
| 20260503081025 | 52 | 348 | 1.7 | 2.6 | 0.00 | 0.69 | 0.00 | 83 | 1019.4 |
| 20260503072025 | 53 | 3 | 1.7 | 2.6 | 0.00 | 1.10 | 0.00 | 80 | 1019.1 |
| 20260503071022 | 53 | 357 | 1.7 | 3.5 | 0.00 | 1.11 | 0.00 | 79 | 1019.1 |
| 20260503055023 | 55 | 329 | 1.7 | 3.5 | 0.00 | 1.40 | 0.00 | 75 | 1018.9 |
| 20260503054023 | 55 | 327 | 1.7 | 2.6 | 0.00 | 1.46 | 0.00 | 76 | 1018.9 |
| 20260503053043 | 55 | 354 | 1.7 | 1.7 | 0.00 | 1.46 | 0.00 | 76 | 1018.8 |